Regional Weather Roundup
Issued by NWS

Home | Current Version | Previous Version | Graphics & Text | Print | Product List | Glossary On
Versions: 1 2 3 4 5 6 7 8 9 10 11 12 13 14 15 16 17 18 19 20 21 22 23 24 25 26 27 28 29 30 31 32 33 34 35 36 37 38 39 40 41 42 43 44 45 46 47 48 49 50
000
ASUS43 KLOT 311700
RWRIL

ILLINOIS REGIONAL WEATHER ROUNDUP
NATIONAL WEATHER SERVICE CHICAGO/ROMEOVILLE IL
1100 AM CST SAT JAN 31 2015

NOTE: "FAIR" INDICATES FEW OR NO CLOUDS BELOW 12,000 FEET WITH NO
SIGNIFICANT WEATHER AND/OR OBSTRUCTIONS TO VISIBILITY.

* THESE STATIONS ARE NOT UNDER NWS QUALITY CONTROL. THEY ALSO MAY NOT
  REPORT WEATHER SUCH AS PRECIPITATION OR FOG.

ILZ001-002-007-009-015-016-024-311800-
NORTHWEST ILLINOIS

CITY           SKY/WX    TMP DP  RH WIND       PRES   REMARKS
MOLINE         CLOUDY    37  27  67 W7        30.22F WCI  32
STERLING*      CLOUDY    36  27  69 W7        30.23S WCI  30
$$

ILZ003-004-008-010-011-017-018-311800-
NORTH CENTRAL ILLINOIS

CITY           SKY/WX    TMP DP  RH WIND       PRES   REMARKS
ROCKFORD       PTSUNNY   34  23  64 W8        30.23R WCI  27
$$

ILZ005-006-012>014-019>023-311800-
NORTHEAST ILLINOIS

CITY           SKY/WX    TMP DP  RH WIND       PRES   REMARKS
CHICAGO-OHARE  PTSUNNY   33  21  61 W13       30.20F WCI  24
CHICAGO-MIDWAY PTSUNNY   36  23  59 SW17      30.22F WCI  26
AURORA         CLOUDY    33  22  63 W12       30.23S WCI  24
WAUKEGAN       PTSUNNY   34  20  56 W7        30.18F WCI  28
DUPAGE AIRPORT CLOUDY    33  23  66 SW13G20   30.21S WCI  24
WHEELING       PTSUNNY   34  20  56 W14       30.21F WCI  25
NORTHERLY ISL    N/A     35  21  57 SW10        N/A  WCI  27
$$

LMZ740>746-311800-
SOUTHERN LAKE MICHIGAN

STATION/POSITION SKY/WX   TEMP    WIND        PRES    VSBY  WAVE
                          AIR SEA DIR/SP/G                  HT/PER
                          (F)     (DEG/KT/KT) (MB)    (MI)  (FT/S)
WAUKEGAN HARBOR            32     240/ 17/ 19   N/A
HARRISON CRIB              32     240/ 13/ 16   N/A
BURNHAM HARBOR             35     220/  9/ 13   N/A
CALUMET HARBOR             34     220/  6/ 12   N/A
MICHIGAN CITY              31     190/ 13/ 16   N/A
$$

ILZ025>027-034>036-040-047-049-050-058-095>099-311800-
WEST-CENTRAL ILLINOIS

CITY           SKY/WX    TMP DP  RH WIND       PRES   REMARKS
QUINCY         CLOUDY    36  23  59 SW8       30.28S WCI  30
$$

ILZ028>032-037-038-041>044-048-051>054-059>061-311800-
CENTRAL ILLINOIS

CITY           SKY/WX    TMP DP  RH WIND       PRES   REMARKS
DECATUR        CLOUDY    37  26  64 SW8       30.31S WCI  31
PEORIA         CLOUDY    37  25  61 SW8       30.26F WCI  31
SPRINGFIELD    CLOUDY    38  25  59 S6        30.29F WCI  33
TAYLORVILLE    NOT AVBL
$$

ILZ033-039-045-046-055>057-062-063-311800-
EAST-CENTRAL ILLINOIS

CITY           SKY/WX    TMP DP  RH WIND       PRES   REMARKS
CHAMPAIGN      CLOUDY    35  26  69 SW16      30.30S WCI  25
MATTOON        CLOUDY    35  25  66 SW12      30.31F WCI  27
$$

ILZ079-100>102-311800-
SOUTHWEST ILLINOIS

CITY           SKY/WX    TMP DP  RH WIND       PRES   REMARKS
BELLEVILLE     CLOUDY    38  27  62 SW7       30.33F WCI  33
CAHOKIA*       CLOUDY    41  24  51 SW6       30.33F
$$

ILZ064>066-069>071-074>076-080>082-084>086-088>090-092>094-311800-
SOUTH-CENTRAL ILLINOIS

CITY           SKY/WX    TMP DP  RH WIND       PRES   REMARKS
CARBONDALE     CLOUDY    39  23  52 S7        30.37F WCI  34
MARION         CLOUDY    39  25  56 S8        30.39S WCI  34
MT. VERNON     CLOUDY    37  27  65 S8        30.36F WCI  31
$$

ILZ067-068-072-073-078-083-087-091-311800-
SOUTHEAST ILLINOIS

CITY           SKY/WX    TMP DP  RH WIND       PRES   REMARKS
LAWRENCEVILLE  CLOUDY    37  25  61 S13       30.38F WCI  29
$$

ABBREVIATIONS USED IN REMARKS
   TC - TEMPERATURE IN CELSIUS
  WCI - WIND CHILL INDEX
   HX - HEAT INDEX
  VSB - VISIBILITY
$$



USA.gov is the U.S. government's official web portal to all federal, state and local government web resources and services.